Location: Amherst
(42.5000°N, 72.5000°W)
Time: 08:00:51
(UTC-04:00)

ISS - Pass Details

Date: 12 July 2018
Orbit: 402 x 408 km, 51.6° (Epoch: 21 July)

Event Time Altitude Azimuth Distance (km) Brightness Sun altitude
Exits shadow 01:26:34 19° 59° (ENE) 1,057 -1.3 -25.1°
Drops below altitude 10° 01:27:36 10° 58° (ENE) 1,470 -0.5 -25.1°
Sets 01:29:42 0° 57° (ENE) 2,334 0.6 -25.1°
